Terminal Aerodrome Forecast
Issued by NWS Melbourne, FL

Home | Current Version | Previous Version | Text Only | Print | Product List | Glossary On
Versions: 1 2 3 4 5 6 7 8 9 10 11 12 13 14 15 16 17 18 19 20 21 22 23 24 25
000
FTUS42 KMLB 111400 AAA
TAFMCO
TAF AMD
KMCO 111458Z 1115/1212 16006KT P6SM SCT025 BKN250
     FM111900 12008KT P6SM VCTS SCT035CB BKN100 BKN250
      TEMPO 1119/1121 2SM +TSRA BKN020CB OVC040
     FM120200 12003KT P6SM SCT100 BKN250=

USA.gov is the U.S. government's official web portal to all federal, state and local government web resources and services.